Skip Page Navigation
NASA JPL Caltech
NASA Logo - Jet Propulsion Laboratory + View the NASA Portal
+ Center for Near-Earth Object Studies
JPL Home Earth Solar System Stars & Galaxies Technology
JPL Solar System Dynamics
BODIES ORBITS EPHEMERIDES TOOLS PHYSICAL DATA DISCOVERY FAQ SITE MAP
JPL Small-Body Database Browser
Search: [ help ]  
17243 (2000 FX35)
Classification: Main-belt Asteroid          SPK-ID: 2017243
Ephemeris | Orbit Diagram | Orbital Elements | Mission Design | Physical Parameters | Discovery Circumstances | Close-Approach Data ]

[ show orbit diagram ]
Orbital Elements at Epoch 2459200.5 (2020-Dec-17.0) TDB
Reference: JPL 32 (heliocentric ecliptic J2000)
 Element Value Uncertainty (1-sigma)   Units 
e .2539969964417559 4.2889e-08  
a 2.644435837367446 1.0813e-08 au
q 1.972757077393175 1.1505e-07 au
i 12.22786554157768 3.9169e-06 deg
node 72.7639724047539 1.9735e-05 deg
peri 118.6889064487485 2.0601e-05 deg
M 290.5262924864111 8.2165e-06 deg
tp 2459503.620949844759
(2021-Oct-16.12094984)
3.6945e-05 TDB
period 1570.717122341123
4.30
9.6341e-06
2.638e-08
d
yr
n .2291946747632235 1.4058e-09 deg/d
Q 3.316114597341717 1.356e-08 au
  Orbit Determination Parameters
   # obs. used (total)      1768  
   data-arc span      25329 days (69.35 yr)  
   first obs. used      1951-11-08  
   last obs. used      2021-03-14  
   planetary ephem.      DE441  
   SB-pert. ephem.      SB441-N16  
   condition code      0  
   norm. resid. RMS      .46511  
   source      ORB  
   producer      Otto Matic  
   solution date      2021-Apr-13 01:58:17  

Additional Information
 Earth MOID = 1.00292 au 
 Jupiter MOID = 1.7557 au 
 T_jup = 3.315 
[ show covariance matrix ]

Ephemeris | Orbit Diagram | Orbital Elements | Mission Design | Physical Parameters | Discovery Circumstances | Close-Approach Data ]

Physical Parameter Table
Parameter Symbol Value Units Sigma Reference Notes
absolute magnitude H 13.8   n/a MPO395169  
diameter diameter 9.370 km 0.334 urn:nasa:pds:neowise_diameters_albedos::2.0[mainbelt] (http://adsabs.harvard.edu/abs/2011ApJ...741...68M)  
rotation period rot_per 24.5865 h n/a LCDB (Rev. 2020-October); Warner et al., 2009 Result based on less than full coverage, so that the period may be wrong by 30 percent or so.
Published Reference List:
[Pal, A.; Szakats, R.; Kiss, C.; Bodi, A.; et al. (2019) Ap. J. Supl. Ser. 247, id.26.]
geometric albedo albedo 0.061   0.014 urn:nasa:pds:neowise_diameters_albedos::2.0[mainbelt] (http://adsabs.harvard.edu/abs/2011ApJ...741...68M)  

17243 (2000 FX35)          Discovered 2000-Mar-29 by LINEAR at Socorro
Reference: 20000913/Numbers.arcLast Updated: 2004-04-19

[ show close-approach data ]
Alternate Designations
 2000 FX35 = 1983 KB = 1991 AZ 
Ephemeris | Orbit Diagram | Orbital Elements | Mission Design | Physical Parameters | Discovery Circumstances | Close-Approach Data ]
ABOUT SSD CREDITS/AWARDS PRIVACY/COPYRIGHT GLOSSARY LINKS
FirstGov 2021-Apr-21 02:16 UT
(server date/time)  
NASA Home Page
Site Manager:   Ryan S. Park
Webmaster  Alan B. Chamberlin